Location: Unspecified
(0.0000°N, 0.0000°E)
Time: 09:52:53
(UTC+00:00)

Hubble Space Telescope - Pass Details

Date: 18 April 2018
Orbit: 537 x 541 km, 28.5° (Epoch: 18 July)

Event Time Altitude Azimuth Distance (km) Brightness Sun altitude
Rises 18:27:12 0° 216° (SW) 2,679 4.7 -6.8°
Reaches altitude 10° 18:30:01 10° 197° (SSW) 1,788 3.5 -7.5°
Maximum altitude 18:32:56 18° 152° (SSE) 1,337 2.4 -8.2°
Enters shadow 18:35:33 11° 110° (ESE) 1,712 2.7 -8.9°
